Погода Ерофей Павлович

Погода Ерофей Павлович : погода сейчас, прогноз погоды и архив. Всё, что Вы хотите узнать о погоде Ерофей Павлович!

Хотите узнать прогноз погоды Ерофей Павлович? Тогда Вам сюда: Погода Ерофей Павлович

Поиск расширенной информации на нашем сайте:

Другие новости

Новости СМИ2

Главная страница сайта

Новости сайта

03.07.2017

Напоминаем, что на нашем специализированном сайте Метеоцентр.Азия вы можете получить высокодетализированные автоматические прогнозы погоды по пунктам России, СНГ и мира в авиационном формате (включающие направление и скорость ветра, видимость, явления погоды, количество и форму облачности, нижнюю и верхнюю границу облачности).

Рекомендуем: купить квартиру в Челябинске

Погода Ерофей Павлович - сегодня

Время (UTC), дата Ветер
(°,м/с) 
Видим.   Явления Облачность Т
(°С)
Тd
(°С)
f(%) Тe
(°С)
Pmin
(гПа)
dP
(гПа)
Po
(мм)
O2
(г/м3)
Тmin Tmax R s Состояние
почвы
03 19.11.17 200 (Ю) 20000 м    3/0 верхняя 
[Ci fib]
-18.5 -28.1 43 -19  1024.7  -0.2  717  312           
06 19.11.17 210 (ЮЗ) 20000 м    ясно 
-15.8 -27.9 35 -20  1022.6  -1.2  716  308           
09 19.11.17 190 (Ю) н/о    ясно 
-19.3 -28.5 44 -20  1024.7  717  312           
12 19.11.17 340 (С) н/о    ясно 
-21.4 -28.1 55 -24  1025.6  0.3  717  315    -15.1       
15 19.11.17 тихо ()   н/о    ясно 
-26.7 -30.9 68 -27  1026.5  -0.6  716  322           
18 19.11.17 010 (С) н/о    ясно 
-26.9 -31.5 65 -28  1025.8  -0.7  716  322           
21 19.11.17 360 (С) н/о    н/о 
-28.7 -32.9 67 -32  1025.1  -1.1  715  324           
00 20.11.17 010 (С) 20000 м    3/0 средняя, верхняя 
[Ac lent|Ci fib]
-29.2 -33.2 68 -30  1023.8  -1.4  714  324  -29.8      равномерный
сухой снег
100% 
03 20.11.17 060 (СВ) 20000 м    10/0 верхняя 
[Cs]
-20.7 -27.6 54 -21  1018.1  -2.9  712  312           
06 20.11.17 200 (Ю) 20000 м    10/0 средняя, верхняя 
[Ac lent|Ci]
-16.4 -23.5 54 -19  1013.6  -3.1  710  306           
09 20.11.17 230 (ЮЗ) н/о    4/0 средняя, верхняя 
[Ac lent|Ci]
-19.1 -22.8 73 -19  1013.1  -1.1  709  309           
12 20.11.17 020 (С) н/о    10/0 средняя, верхняя 
[Ac lent|Ci]
-22.7 -25.8 76 -23  1013.7  -0.5  708  313    -16.2       
15 20.11.17 320 (СЗ) н/о    10/0 средняя, верхняя 
[Ac As|Ci]
-24.2 -27.5 74 -25  1013.8  -0.3  708  315           
18 20.11.17 340 (С) н/о    10/0 средняя, верхняя 
[Ac As|Ci]
-25 -28.4 73 -26  1013.9  0.1  708  316           
21 20.11.17 340 (С) н/о    10/0 средняя, верхняя 
[Ac trans|Ci]
-26.9 -30.3 73 -28  1013.8  -0.6  708  318           
00 21.11.17 230 (ЮЗ) 20000 м    10/0 средняя, верхняя 
[Ac trans|Ci]
-27.9 -31.8 69 -29  1014.6  0.5  708  319  -28.4      равномерный
сухой снег
100% 
03 21.11.17 020 (С) 20000 м    10/0 верхняя 
[Ci]
-16.7 -21.6 66 -17  1011.1  -0.3  708  305           
06 21.11.17 150 (ЮВ) 20000 м    3/0 верхняя 
[Ci fib]
-8.8 -18.1 47 -9  1008.8  -0.2  708  296           
09 21.11.17 030 (СВ) н/о    ясно 
-15.3 -20.8 63 -15  1012.9  2.3  709  304           
12 21.11.17 330 (СЗ) н/о    ясно 
-18.6 -22.1 74 -19  1015.1  1.2  710  309    -7.6       
15 21.11.17 тихо ()   н/о  слаб. ливневой снег  10/10 600 м кучево-дожд. 
[Cb cap]
-19.4 -22.4 77 -19  1016  0.6  711  310           
18 21.11.17 350 (С) н/о  слаб. ливневой снег  10/10 600 м кучево-дожд. 
[Cb cap]
-19.2 -21.9 79 -19  1015.9  -0.1  711  309           
21 21.11.17 320 (СЗ) н/о  слаб. ливневой снег  10/10 600 м кучево-дожд. 
[Cb cap]
-18.7 -21.6 78 -19  1015.3  -0.3  710  309           
00 22.11.17 тихо ()   20000 м  {ливн. осадки}  3/3 600 м кучево-дожд. 
[Cb cap]
-22.8 -25.8 76 -23  1016.8  0.3  711  314  -22.8    0.3  равномерный
сухой снег
100% 
03 22.11.17 тихо ()   20000 м    10/0 верхняя 
[Cs]
-15 -20.1 65 -15  1014.2  -0.4  710  304  -22.8         
Время (UTC), дата Ветер
(°,м/с) 
Видим.   Явления Облачность Т
(°С)
Тd
(°С)
f(%) Тe
(°С)
Pmin
(гПа)
dP
(гПа)
Po
(мм)
O2
(г/м3)
Тmin Tmax R s Состояние
почвы

Для получения пояснительной информации подведите курсор к названию столбца.

ПОГОДА Ерофей Павлович - архив

Всё, что Вы хотите узнать о погоде Ерофей Павлович - удобно и подробно!

Выберите нужную дату (начиная с 1 января 2015* года) и нажмите кнопку "Найти".
Будут отображены архивные сводки погоды по пункту Ерофей Павлович, начиная с указанной даты.


Отображать данные в формате CSV (для использования в таблицах Excel)


Внимание! Наш архив погоды предназначен исключительно для личного некоммерческого использования в познавательных целях. Если Вам необходимы официальные справки о состоянии погоды (для производственных, юридических, коммерческих и т.п. целей), обращайтесь в органы Росгидромета.

*Примечание: данная дата относится к архиву по метеостанциям СССР (Россия, СНГ, Балтия).
Архив по метеостанциям Зарубежной Европы и Азии (кроме Китая) хранится 10 дней, по другим регионам земного шара (Китай, Африка, Америка, Австралия, Океания) - 1 день.

Ерофей Павлович - район местоположения метеостанции


Название, широта, долгота, высота метеостанции:
Ерофей Павлович 54°ш. 121.9°д. 522 м над ур. моря [Российская Федерация]

Дополнительная информация

В oтличие oт бoльшинства пoгoдных сайтoв мы публикуем пoдрoбную метеoинфoрмацию в детальнoм прoфессиoнальнoм фoрмате.

Характеристики температуры и влажнoсти вoздуха измеряются на высoте 2 м в тени вдали oт зданий и деревьев.
Скoрoсть ветра измеряется на высoте 10 м (на урoвне рoста челoвека скoрoсть ветра ниже в 1.5-2 раза). Если метеoстанция нахoдится в гoрoде или в лесу, тo скoрoсть ветра занижена на 2-4 м/с пo сравнению с oткрытым местoм. Скoрoсть ветра над акватoриями крупных рек и oзёр, а также на вершинах хoлмoв на 2-5 м/с выше, чем в oбычных услoвиях.
Атмoсфернoе давление в разных тoчках местнoсти мoжет значительнo oтличаться oт давления на метеoстанции, в зависимoсти oт услoвий рельефа (при пoдъёме на 10 м давление пoнижается примернo на 1 мм рт.ст.).